Location: Baia Mare
(47.6567°N, 23.5850°E)
Time: 21:31:06
(UTC+03:00)

Envisat - Pass Details

Date: 22 January 2022
Orbit: 764 x 765 km, 98.2° (Epoch: 19 May)

Event Time Altitude Azimuth Distance (km) Brightness Sun altitude
Rises 05:24:42 0° 14° (NNE) 3,241 6.4 -26.5°
Reaches altitude 10° 05:27:01 10° 15° (NNE) 2,311 5.6 -26.1°
Maximum altitude 05:32:07 83° 104° (ESE) 776 2.9 -25.3°
Drops below altitude 10° 05:37:11 10° 193° (SSW) 2,295 5.4 -24.4°
Sets 05:39:29 0° 194° (SSW) 3,217 6.1 -24.0°
